Lawrenceville, IL

7:23 PM CST on February 24, 2017 (GMT -0600)
Lawrenceville-Vincennes International

Weather History for KLWV - May, 2013

Change the Weather History Date:

Thursday, May 16, 2013

  Actual Average Record
Temperature  
Mean Temperature 68 °F 66 °F  
Max Temperature 72 °F 77 °F 93 °F (2001)
Min Temperature 63 °F 56 °F 37 °F (1997)
Degree Days  
Heating Degree Days 0 3  
Month to date heating degree days 54 58  
Since 1 July heating degree days 4903 4649  
Cooling Degree Days 3 4  
Month to date cooling degree days 43 38  
Year to date cooling degree days 65 64  
Growing Degree Days 18 (Base 50)    
Moisture  
Dew Point 62 °F    
Average Humidity 81    
Maximum Humidity 93    
Minimum Humidity 68    
Precipitation  
Precipitation 2.30 in 0.20 in 2.98 in (1990)
Month to date precipitation 4.37 3.25  
Year to date precipitation 22.07 15.23  
Sea Level Pressure  
Sea Level Pressure 29.95 in    
Wind  
Wind Speed 7 mph (SSW)    
Max Wind Speed 33 mph    
Max Gust Speed 51 mph    
Visibility 4 miles    
Events Fog , Rain , Thunderstorm    
T = Trace of Precipitation, MM = Missing Value Source: NWS Daily Summary

Daily Weather History Graph

Daily Weather History Graph

Search for Another Location

Airport or City:

Trip Planner

Search our weather history database for the weather conditions in past years. The results will help you decide how hot, cold, wet, or windy it might be!

Date:

Astronomy

May. 16, 2013 Rise Set
Actual Time 5:37 AM CDT 7:56 PM CDT
Civil Twilight 5:07 AM CDT 8:27 PM CDT
Nautical Twilight 4:30 AM CDT 9:04 PM CDT
Astronomical Twilight 3:49 AM CDT 9:45 PM CDT
Moon 11:08 AM CDT (5/16) 12:18 AM CDT (5/16)
Length of Visible Light 15h 19m
Length of Day
14h 19m
Waxing Crescent, 36% of the Moon is Illuminated
May 16
Waxing Crescent
May 17
First Quarter
May 24
Full
May 31
Last Quarter
Jun 8
New

Hourly Weather History & Observations

Time (CDT) Temp. Dew Point Humidity Pressure Visibility Wind Dir Wind Speed Gust Speed Precip Events Conditions
12:53 AM 70.0 °F 59.0 °F 68% 29.88 in 8.0 mi SSW 8.1 mph - N/A   Clear
1:53 AM 68.0 °F 57.9 °F 70% 29.87 in 8.0 mi SSW 5.8 mph - N/A   Clear
2:53 AM 66.0 °F 57.9 °F 75% 29.86 in 8.0 mi SSW 4.6 mph - N/A   Clear
3:53 AM 64.9 °F 57.9 °F 78% 29.87 in 8.0 mi South 4.6 mph - N/A   Clear
4:53 AM 66.0 °F 59.0 °F 78% 29.88 in 8.0 mi SW 4.6 mph - N/A   Clear
5:53 AM 66.9 °F 60.1 °F 79% 29.89 in 6.0 mi SSW 6.9 mph - N/A   Haze
6:53 AM 69.1 °F 62.1 °F 78% 29.91 in 6.0 mi SW 9.2 mph - N/A   Haze
7:53 AM 70.0 °F 62.1 °F 76% 29.93 in 6.0 mi SW 10.4 mph - N/A   Haze
8:43 AM 71.6 °F 62.6 °F 73% 29.93 in 6.0 mi SW 10.4 mph - N/A Thunderstorm Haze
8:53 AM 72.0 °F 63.0 °F 73% 29.93 in 6.0 mi SW 9.2 mph - N/A   Haze
9:01 AM 69.8 °F 64.4 °F 83% 29.94 in 4.0 mi SW 8.1 mph - 0.00 in Rain , Thunderstorm Light Thunderstorms and Rain
9:19 AM 71.6 °F 64.4 °F 78% 29.94 in 6.0 mi WSW 15.0 mph 19.6 mph 0.00 in Thunderstorm Unknown
9:35 AM 69.8 °F 60.8 °F 73% 29.94 in 7.0 mi SW 24.2 mph 33.4 mph 0.00 in   Overcast
9:53 AM 69.1 °F 55.9 °F 63% 29.95 in 9.0 mi WSW 25.3 mph 31.1 mph 0.00 in Thunderstorm Thunderstorm
9:56 AM 68.0 °F 57.2 °F 68% 29.95 in 1.5 mi WSW 27.6 mph 41.4 mph 0.07 in Rain , Thunderstorm Light Thunderstorms and Rain
9:58 AM 66.2 °F 59.0 °F 78% 29.95 in 0.5 mi SW 33.4 mph 50.6 mph 0.17 in Rain , Thunderstorm Light Thunderstorms and Rain
10:10 AM 64.4 °F 60.8 °F 88% 29.96 in 0.5 mi SSW 23.0 mph 34.5 mph 0.44 in Fog , Rain , Thunderstorm Heavy Thunderstorms and Rain
10:24 AM 64.4 °F 60.8 °F 88% 29.97 in 2.0 mi South 19.6 mph 27.6 mph 0.49 in Rain , Thunderstorm Thunderstorms and Rain
10:37 AM 64.4 °F 59.0 °F 83% 29.97 in 6.0 mi SSE 11.5 mph 40.3 mph 0.50 in Rain , Thunderstorm Light Thunderstorms and Rain
10:53 AM 66.9 °F 60.1 °F 79% 29.96 in 8.0 mi SSW 16.1 mph 21.9 mph 0.50 in Thunderstorm Overcast
11:30 AM 66.2 °F 60.8 °F 83% 29.99 in 1.8 mi ESE 8.1 mph - 0.14 in Rain , Thunderstorm Heavy Thunderstorms and Rain
11:36 AM 66.2 °F 60.8 °F 83% 29.99 in 0.8 mi East 13.8 mph 21.9 mph 0.33 in Rain , Thunderstorm Heavy Thunderstorms and Rain
11:46 AM 66.2 °F 62.6 °F 88% 30.00 in 2.0 mi ESE 6.9 mph - 0.36 in Rain , Thunderstorm Light Thunderstorms and Rain
11:53 AM 66.0 °F 61.0 °F 84% 29.98 in 7.0 mi ESE 8.1 mph - 0.37 in Rain , Thunderstorm Light Thunderstorms and Rain
12:02 PM 64.4 °F 62.6 °F 94% 29.98 in 1.5 mi NE 5.8 mph - 0.09 in Rain , Thunderstorm Heavy Thunderstorms and Rain
12:16 PM 64.4 °F 62.6 °F 94% 30.01 in 0.5 mi West 16.1 mph 19.6 mph 0.42 in Fog , Rain , Thunderstorm Heavy Thunderstorms and Rain
12:39 PM 66.2 °F 60.8 °F 83% 29.97 in 1.0 mi WSW 16.1 mph 27.6 mph 1.16 in Rain , Thunderstorm Heavy Thunderstorms and Rain
12:50 PM 68.0 °F 62.6 °F 83% 29.98 in 2.5 mi WSW 13.8 mph 23.0 mph 1.19 in Rain , Thunderstorm Thunderstorms and Rain
12:53 PM 66.9 °F 62.1 °F 84% 29.97 in 2.5 mi WSW 11.5 mph 23.0 mph 1.19 in Rain , Thunderstorm Thunderstorms and Rain
1:11 PM 64.4 °F 60.8 °F 88% 29.98 in 1.8 mi West 11.5 mph - 0.05 in Rain , Thunderstorm Heavy Rain
1:33 PM 66.2 °F 62.6 °F 88% 29.98 in 6.0 mi West 11.5 mph - 0.07 in Rain Light Rain
1:53 PM 66.0 °F 61.0 °F 84% 29.99 in 2.0 mi WNW 6.9 mph - 0.10 in Rain Rain
2:22 PM 64.4 °F 62.6 °F 94% 29.98 in 1.8 mi West 6.9 mph - 0.09 in Rain Rain
2:36 PM 66.2 °F 62.6 °F 88% 29.96 in 2.5 mi West 6.9 mph - 0.12 in Rain Light Rain
2:45 PM 66.2 °F 62.6 °F 88% 29.96 in 3.0 mi West 5.8 mph - 0.13 in Rain Light Rain
2:53 PM 66.9 °F 64.0 °F 90% 29.95 in 4.0 mi West 4.6 mph - 0.13 in Rain Light Rain
3:53 PM 70.0 °F 64.9 °F 84% 29.92 in 6.0 mi West 3.5 mph - 0.01 in   Haze
5:53 PM 70.0 °F 66.0 °F 87% 29.92 in 5.0 mi East 4.6 mph - N/A   Overcast
6:53 PM 68.0 °F 64.9 °F 90% 29.92 in 4.0 mi East 5.8 mph - N/A   Overcast
7:53 PM 66.9 °F 64.9 °F 93% 29.93 in 3.0 mi East 5.8 mph - N/A   Mostly Cloudy
8:53 PM 66.9 °F 64.0 °F 90% 29.94 in 4.0 mi East 4.6 mph - N/A   Clear
9:41 PM 64.4 °F 62.6 °F 94% 29.96 in 2.5 mi East 5.8 mph - N/A   Clear
9:53 PM 64.9 °F 63.0 °F 93% 29.95 in 2.5 mi East 5.8 mph - N/A   Clear
10:53 PM 64.9 °F 63.0 °F 93% 29.96 in 2.5 mi ENE 5.8 mph - N/A   Clear
11:53 PM 64.0 °F 62.1 °F 93% 29.98 in 2.5 mi ENE 3.5 mph - N/A   Clear